When you browse on this site, cookies collect data to enhance your experience and personalize the content and advertising you see.
Visit our Privacy Policy to learn more. By continuing to use the site, you agree to this use of cookies and data.
  • In Czech Republic
  • List of Countries
  • For 7 days
  • Water Temperature
  • Satellite Maps
  • Weather Map
  • Weather Widgets
  • user-avatar
    Login

    Hourly Weather Klichev

    Today, 22 May, Wednesday

    Time Temperature Precipitation Wind Pressure Humidity
    00:00 +14°C° 0 mm 3 mps 744 mmHg 94%
    01:00 +14°C° 0 mm 3 mps 744 mmHg 96%
    02:00 +14°C° 0 mm 2 mps 743 mmHg 98%
    03:00 +14°C° 0 mm 2 mps 743 mmHg 98%
    04:00 +14°C° 0 mm 2 mps 743 mmHg 98%
    05:00 +13°C° 0 mm 2 mps 743 mmHg 98%
    06:00 +15°C° 0 mm 2 mps 743 mmHg 89%
    07:00 +17°C° 0 mm 2 mps 743 mmHg 80%
    08:00 +19°C° 0 mm 2 mps 743 mmHg 70%
    09:00 +21°C° 0 mm 2 mps 743 mmHg 63%
    10:00 +23°C° 0 mm 2 mps 743 mmHg 55%
    11:00 +24°C° 0 mm 2 mps 743 mmHg 48%
    12:00 +24°C° 0 mm 2 mps 743 mmHg 47%
    13:00 +24°C° 0 mm 2 mps 743 mmHg 47%
    14:00 +25°C° 0 mm 2 mps 742 mmHg 47%
    15:00 +25°C° 0 mm 2 mps 742 mmHg 46%
    16:00 +25°C° 0 mm 1 mps 742 mmHg 46%
    17:00 +25°C° 0 mm 1 mps 742 mmHg 45%
    18:00 +23°C° 0 mm 1 mps 742 mmHg 51%
    19:00 +21°C° 0 mm 1 mps 742 mmHg 56%
    20:00 +17°C° 0 mm 0 mps 742 mmHg 62%
    21:00 +17°C° 0 mm 0 mps 742 mmHg 63%
    22:00 +16°C° 0 mm 0 mps 742 mmHg 64%
    23:00 +16°C° 0 mm 0 mps 742 mmHg 65%

    Tomorrow, 23 May, Thursday

    Time Temperature Precipitation Wind Pressure Humidity
    00:00 +16°C° 0 mm 1 mps 742 mmHg 68%
    01:00 +15°C° 0 mm 1 mps 742 mmHg 71%
    02:00 +15°C° 0 mm 1 mps 742 mmHg 73%
    03:00 +15°C° 0 mm 1 mps 742 mmHg 75%
    04:00 +14°C° 0 mm 1 mps 742 mmHg 76%
    05:00 +14°C° 0 mm 1 mps 742 mmHg 77%
    06:00 +18°C° 0 mm 1 mps 742 mmHg 71%
    07:00 +20°C° 0 mm 1 mps 742 mmHg 64%
    08:00 +22°C° 0 mm 1 mps 742 mmHg 58%
    09:00 +23°C° 0 mm 1 mps 742 mmHg 53%
    10:00 +25°C° 0 mm 1 mps 742 mmHg 49%
    11:00 +26°C° 0 mm 2 mps 742 mmHg 44%
    12:00 +26°C° 0 mm 2 mps 742 mmHg 46%
    13:00 +26°C° 0 mm 2 mps 742 mmHg 47%
    14:00 +26°C° 0 mm 2 mps 742 mmHg 49%
    15:00 +26°C° 0 mm 2 mps 742 mmHg 49%
    16:00 +26°C° 0 mm 2 mps 741 mmHg 49%
    17:00 +26°C° 0 mm 2 mps 741 mmHg 49%
    18:00 +24°C° 0 mm 2 mps 741 mmHg 56%
    19:00 +21°C° 0 mm 2 mps 741 mmHg 62%
    20:00 +19°C° 0 mm 2 mps 741 mmHg 69%
    21:00 +19°C° 0 mm 1 mps 742 mmHg 73%
    22:00 +18°C° 0 mm 1 mps 742 mmHg 78%
    23:00 +16°C° 0 mm 1 mps 742 mmHg 82%

    Day after tomorrow, 24 May, Friday

    Time Temperature Precipitation Wind Pressure Humidity
    00:00 +16°C° 0 mm 1 mps 742 mmHg 85%
    01:00 +15°C° 0 mm 1 mps 742 mmHg 87%
    02:00 +15°C° 0 mm 1 mps 742 mmHg 89%
    03:00 +15°C° 0 mm 1 mps 742 mmHg 89%
    04:00 +15°C° 0 mm 1 mps 742 mmHg 88%
    05:00 +14°C° 0 mm 0 mps 742 mmHg 88%
    06:00 +17°C° 0 mm 0 mps 742 mmHg 80%
    07:00 +21°C° 0 mm 1 mps 742 mmHg 72%
    08:00 +23°C° 0 mm 1 mps 742 mmHg 65%
    09:00 +24°C° 0.1 mm 1 mps 742 mmHg 59%
    10:00 +26°C° 0.1 mm 1 mps 742 mmHg 54%
    11:00 +27°C° 0.1 mm 1 mps 742 mmHg 48%
    12:00 +27°C° 0 mm 1 mps 742 mmHg 46%
    13:00 +28°C° 0 mm 1 mps 742 mmHg 44%
    14:00 +29°C° 0 mm 1 mps 742 mmHg 41%
    15:00 +27°C° 0.1 mm 1 mps 742 mmHg 48%
    16:00 +25°C° 0.1 mm 1 mps 741 mmHg 56%
    17:00 +24°C° 0.1 mm 2 mps 741 mmHg 63%
    18:00 +21°C° 0.1 mm 2 mps 741 mmHg 69%
    19:00 +21°C° 0.1 mm 1 mps 741 mmHg 76%
    20:00 +20°C° 0.1 mm 1 mps 741 mmHg 82%
    21:00 +19°C° 0 mm 1 mps 741 mmHg 83%
    22:00 +18°C° 0 mm 1 mps 741 mmHg 85%
    23:00 +16°C° 0 mm 0 mps 741 mmHg 87%

    25 May, Saturday

    Time Temperature Precipitation Wind Pressure Humidity
    00:00 +16°C° 0 mm 1 mps 740 mmHg 88%
    01:00 +16°C° 0 mm 1 mps 740 mmHg 90%
    02:00 +15°C° 0 mm 1 mps 740 mmHg 92%
    03:00 +15°C° 0.2 mm 1 mps 740 mmHg 93%
    04:00 +15°C° 0.2 mm 1 mps 740 mmHg 94%
    05:00 +15°C° 0.2 mm 1 mps 740 mmHg 95%
    06:00 +18°C° 0.1 mm 1 mps 740 mmHg 89%
    07:00 +19°C° 0.1 mm 1 mps 740 mmHg 84%
    08:00 +20°C° 0.1 mm 2 mps 740 mmHg 79%
    09:00 +20°C° 1 mm 2 mps 740 mmHg 77%
    10:00 +21°C° 1 mm 3 mps 740 mmHg 76%
    11:00 +22°C° 1 mm 4 mps 740 mmHg 74%
    12:00 +21°C° 1 mm 4 mps 740 mmHg 76%
    13:00 +20°C° 1 mm 3 mps 740 mmHg 79%
    14:00 +20°C° 1 mm 3 mps 739 mmHg 81%
    15:00 +20°C° 0.5 mm 3 mps 739 mmHg 80%
    16:00 +20°C° 0.5 mm 3 mps 739 mmHg 78%
    17:00 +20°C° 0.5 mm 2 mps 739 mmHg 77%
    18:00 +19°C° 0 mm 2 mps 739 mmHg 78%
    19:00 +18°C° 0 mm 3 mps 740 mmHg 79%
    20:00 +16°C° 0 mm 3 mps 740 mmHg 81%
    21:00 +14°C° 0 mm 3 mps 740 mmHg 84%
    22:00 +13°C° 0 mm 3 mps 740 mmHg 88%
    23:00 +12°C° 0 mm 3 mps 740 mmHg 92%

    26 May, Sunday

    Time Temperature Precipitation Wind Pressure Humidity
    00:00 +11°C° 0 mm 3 mps 741 mmHg 92%
    01:00 +12°C° 0 mm 2 mps 741 mmHg 93%
    02:00 +10°C° 0 mm 2 mps 741 mmHg 93%
    03:00 +10°C° 0 mm 2 mps 741 mmHg 93%
    04:00 +9°C° 0 mm 2 mps 741 mmHg 93%
    05:00 +9°C° 0 mm 2 mps 741 mmHg 93%
    06:00 +12°C° 0 mm 2 mps 741 mmHg 84%
    07:00 +12°C° 0 mm 3 mps 741 mmHg 75%
    08:00 +14°C° 0 mm 3 mps 741 mmHg 66%
    09:00 +16°C° 0 mm 3 mps 741 mmHg 62%
    10:00 +18°C° 0 mm 4 mps 741 mmHg 57%
    11:00 +19°C° 0 mm 4 mps 741 mmHg 52%
    12:00 +18°C° 0.1 mm 4 mps 741 mmHg 56%
    13:00 +18°C° 0.1 mm 4 mps 741 mmHg 60%
    14:00 +18°C° 0.1 mm 4 mps 741 mmHg 64%
    15:00 +18°C° 0.2 mm 4 mps 741 mmHg 67%
    16:00 +18°C° 0.2 mm 4 mps 740 mmHg 69%
    17:00 +18°C° 0.2 mm 4 mps 740 mmHg 72%
    18:00 +15°C° 0.1 mm 4 mps 740 mmHg 75%
    19:00 +14°C° 0.1 mm 3 mps 740 mmHg 77%
    20:00 +13°C° 0.1 mm 3 mps 740 mmHg 80%
    21:00 +12°C° 0.1 mm 3 mps 740 mmHg 82%
    22:00 +12°C° 0.1 mm 3 mps 740 mmHg 84%
    23:00 +11°C° 0.1 mm 3 mps 740 mmHg 86%

    27 May, Monday

    Time Temperature Precipitation Wind Pressure Humidity
    00:00 +10°C° 0 mm 3 mps 740 mmHg 88%
    01:00 +9°C° 0 mm 3 mps 740 mmHg 89%
    02:00 +7°C° 0 mm 4 mps 740 mmHg 91%
    03:00 +7°C° 0 mm 4 mps 741 mmHg 91%
    04:00 +7°C° 0 mm 4 mps 741 mmHg 90%
    05:00 +6°C° 0 mm 4 mps 741 mmHg 89%
    06:00 +8°C° 0 mm 5 mps 741 mmHg 82%
    07:00 +9°C° 0 mm 5 mps 742 mmHg 75%
    08:00 +10°C° 0 mm 6 mps 742 mmHg 67%
    09:00 +13°C° 0 mm 6 mps 742 mmHg 63%
    10:00 +14°C° 0 mm 6 mps 743 mmHg 58%
    11:00 +15°C° 0 mm 6 mps 743 mmHg 53%
    12:00 +15°C° 0.1 mm 6 mps 743 mmHg 56%
    13:00 +15°C° 0.1 mm 6 mps 744 mmHg 58%
    14:00 +15°C° 0.1 mm 6 mps 744 mmHg 61%
    15:00 +15°C° 0.1 mm 5 mps 744 mmHg 61%
    16:00 +15°C° 0.1 mm 5 mps 744 mmHg 62%
    17:00 +15°C° 0.1 mm 5 mps 745 mmHg 62%
    18:00 +14°C° 0 mm 4 mps 745 mmHg 69%
    19:00 +13°C° 0 mm 2 mps 745 mmHg 75%
    20:00 +12°C° 0 mm 1 mps 745 mmHg 82%
    21:00 +11°C° 0 mm 1 mps 745 mmHg 85%
    22:00 +10°C° 0 mm 1 mps 746 mmHg 88%
    23:00 +9°C° 0 mm 1 mps 746 mmHg 91%
    Show more